Regional Weather Roundup
Issued by NWS

Home | Current Version | Previous Version | Text Only | Print | Product List | Glossary Off
Versions: 1 2 3 4 5 6 7 8 9 10 11 12 13 14 15 16 17 18 19 20 21 22 23 24 25 26 27 28 29 30 31 32 33 34 35 36 37 38 39 40 41 42 43 44 45 46 47 48 49 50

000
ASUS43 KTOP 190908
RWRKS

WEATHER ROUNDUP FOR KANSAS
NATIONAL WEATHER SERVICE GOODLAND KS
300 AM CST FRI DEC 19 2014

NOTE:  "FAIR" INDICATES FEW OR NO CLOUDS BELOW 12,000 FEET WITH NO
SIGNIFICANT WEATHER AND/OR OBSTRUCTIONS TO VISIBILITY.

KSZ001>006-013>018-027>032-041>047-191000-
NORTHWEST KANSAS

CITY           SKY/WX    TMP DP  RH WIND       PRES   REMARKS
GOODLAND       PTCLDY    24  20  84 W7        30.11S
HAYS           CLOUDY    32  25  74 S5        30.18S
HILL CITY      CLOUDY    33  29  85 CALM      30.17S
RUSSELL        CLOUDY    31  30  96 SE5       30.18S
$$

KSZ061>065-074>080-084>089-191000-
SOUTHWEST KANSAS

CITY           SKY/WX    TMP DP  RH WIND       PRES   REMARKS
DODGE CITY     CLOUDY    33  31  92 S6        30.17S FOG
ELKHART          N/A     32  27  82 SW3         N/A
GARDEN CITY    CLOUDY    32  31  96 SW7       30.14F
GREAT BEND     CLOUDY    30  27  86 S8        30.21S
LIBERAL        CLOUDY    36  32  87 CALM      30.18S
PRATT          CLOUDY    32  32 100 CALM      30.21S FOG
$$

KSZ066>073-081>083-090>101-191000-
SOUTHEAST KANSAS

CITY           SKY/WX    TMP DP  RH WIND       PRES   REMARKS
CHANUTE        CLOUDY    33  33 100 N6        30.24S FOG
COFFEYVILLE    CLOUDY    35  34  96 N6        30.24S FOG
HUTCHINSON     CLOUDY    31  28  89 CALM      30.23S FOG
MEDICINE LODGE   N/A     34  31  88 CALM      30.22S
NEWTON         CLOUDY    28  23  80 CALM      30.24S VSB 1/2
PARSONS        CLOUDY    35  34  96 N5        30.25S
WICHITA INTL   CLOUDY    31  28  89 N3        30.23F
WICHITA JABRA  CLOUDY    29  28  96 N6        30.22F
WICHITA MCCONL CLOUDY    30  28  93 N5        30.23F FOG
WINFIELD       CLOUDY    32  31  96 NW6       30.24S
$$

KSZ007>012-019>026-033>040-048>060-102>105-191000-
NORTHEAST KANSAS

CITY           SKY/WX    TMP DP  RH WIND       PRES   REMARKS
CONCORDIA      CLOUDY    28  27  96 SW5       30.22S
EMPORIA        CLOUDY    29  28  96 NW5       30.24S FOG
LAWRENCE       CLOUDY    32  29  88 CALM      30.27S
MANHATTAN      CLOUDY    31  29  92 CALM      30.25S
MARYSVILLE     CLOUDY    32  28  86 S5        30.24S
OLATHE IND     CLOUDY    31  29  92 W3        30.25F
OLATHE EXE     CLOUDY    32  29  88 CALM      30.24S
SALINA         CLOUDY    30  27  88 S5        30.25R FOG
TOPEKA BILLARD CLOUDY    32  29  88 S3        30.27S
TOPEKA FORBES  CLOUDY    31  28  89 NW3       30.25S
$$


USA.gov is the U.S. government's official web portal to all federal, state and local government web resources and services.